This demonstration page uses our WeatherBlox Daily Observations layout. Learn more.

Left ArrowRight Arrow

Hourly Observations for October 21, 2019

Temp ( °F °C ) Dew Point ( °F °C ) Humidity (%) Winds ( mph kmh ) Pressure ( in mb ) Visibility ( mi km ) Precip ( " mm )
12:53 am 00:53 Clear 58 14.4 56 13.3 93 93 Calm 29.97 1015 10 16 0.00 0.00
1:50 am 01:50 Clear with Mist and Fog 57 14 55 13 94 94 Calm 29.97 1015 2 3 0.00 0.00
1:53 am 01:53 Clear with Mist and Fog 57 13.9 55 12.8 93 93 Calm 29.97 1015 1 2 0.00 0.00
2:18 am 02:18 Clear with Mist and Fog 56 13.3 55 12.8 97 97 Calm 29.97 1015 3 5 0.00 0.00
2:27 am 02:27 Clear with Mist and Fog 56 13.3 55 12.8 97 97 Calm 29.97 1015 2 3 0.00 0.00
2:35 am 02:35 Clear with Mist and Fog 56 13.3 55 12.8 97 97 Calm 30.00 1016 2 3 0.00 0.00
2:45 am 02:45 Clear with Mist and Fog 56 13.3 55 12.8 97 97 Calm 30.00 1016 2 3 0.00 0.00
2:49 am 02:49 Clear with Mist and Fog 55 13 54 12 94 94 Calm 29.97 1015 4 6 0.00 0.00
3:09 am 03:09 Clear with Mist and Fog 55 12.8 53 11.7 93 93 Calm 29.97 1015 2 3 0.00 0.00
3:16 am 03:16 Mostly Cloudy with Mist and Fog 55 12.8 53 11.7 93 93 Calm 29.97 1015 1 1 0.00 0.00
3:32 am 03:32 Mostly Cloudy with Fog 54 12.2 53 11.7 97 97 Calm 29.97 1015 0 0 0.00 0.00
3:53 am 03:53 Mostly Cloudy with Fog 54 12.2 54 12.2 100 100 Calm 29.95 1014 1 1 0.00 0.00
4:20 am 04:20 Mostly Cloudy with Mist and Fog 56 13.3 54 12.2 93 93 Calm 29.94 1014 1 2 0.00 0.00
4:42 am 04:42 Mostly Cloudy with Fog 54 12.2 53 11.7 97 97 Calm 29.94 1014 1 1 0.00 0.00
4:53 am 04:53 Mostly Cloudy with Mist and Fog 54 12.2 53 11.7 97 97 Calm 29.94 1014 1 1 0.00 0.00
5:03 am 05:03 Mostly Cloudy with Fog 55 12.8 54 12.2 96 96 Calm 29.94 1014 1 1 0.00 0.00
5:43 am 05:43 Mostly Cloudy with Mist and Fog 55 12.8 54 12.2 96 96 Calm 29.97 1015 1 2 0.00 0.00
5:48 am 05:48 Cloudy with Mist and Fog 55 13 54 12 94 94 Calm 29.97 1015 3 5 0.00 0.00
5:50 am 05:50 Cloudy with Mist and Fog 55 13 54 12 94 94 Calm 29.94 1014 2 3 0.00 0.00
5:53 am 05:53 Cloudy with Mist and Fog 55 12.8 54 12.2 96 96 Calm 29.94 1014 2 2 0.00 0.00
6:13 am 06:13 Cloudy with Mist and Fog 54 12.2 53 11.7 97 97 Calm 29.97 1015 2 3 0.00 0.00
6:53 am 06:53 Mostly Cloudy with Mist and Fog 54 12.2 53 11.7 97 97 Calm 29.96 1015 1 1 0.00 0.00
7:01 am 07:01 Cloudy with Mist and Fog 54 12.2 53 11.7 97 97 Calm 29.97 1015 2 3 0.00 0.00
7:31 am 07:31 Mostly Cloudy with Mist and Fog 53 11.7 52 11.1 96 96 Calm 30.00 1016 2 3 0.00 0.00
7:38 am 07:38 Mostly Cloudy with Mist and Fog 53 11.7 53 11.7 100 100 Calm 30.00 1016 5 8 0.00 0.00
7:53 am 07:53 Partly Cloudy 53 11.7 52 11.1 96 96 Calm 29.97 1015 10 16 0.00 0.00
8:53 am 08:53 Sunny 56 13.3 55 12.8 97 97 ENE 3 6 29.99 1016 10 16 0.00 0.00
9:43 am 09:43 Mostly Cloudy 59 15 57 13.9 93 93 NE 3 6 30.00 1016 10 16 0.00 0.00
9:53 am 09:53 Partly Cloudy 61 16.1 58 14.4 90 90 NE 3 6 29.99 1016 10 16 0.00 0.00
10:53 am 10:53 Sunny 68 20 61 16.1 78 78 VRB 6 9 30.00 1016 10 16 0.00 0.00
11:53 am 11:53 Sunny 71 21.7 62 16.7 73 73 SE 9 15 29.98 1015 10 16 0.00 0.00
12:53 pm 12:53 Mostly Sunny 74 23.3 62 16.7 67 67 S 10 17 29.98 1015 10 16 0.00 0.00
1:53 pm 13:53 Mostly Sunny 76 24.4 62 16.7 62 62 SSE 9 15 29.95 1014 10 16 0.00 0.00
2:53 pm 14:53 Partly Cloudy 76 24.4 62 16.7 62 62 VRB 6 9 29.94 1014 10 16 0.00 0.00
4:53 pm 16:53 Partly Cloudy 76 24.4 62 16.7 62 62 SSE 8 13 29.94 1014 10 16 0.00 0.00
5:53 pm 17:53 Mostly Sunny 74 23.3 62 16.7 67 67 S 5 7 29.92 1013 10 16 0.00 0.00
6:53 pm 18:53 Mostly Sunny 73 22.8 62 16.7 69 69 SE 5 7 29.92 1013 10 16 0.00 0.00
7:53 pm 19:53 Mostly Clear 71 21.7 62 16.7 73 73 Calm 29.95 1014 10 16 0.00 0.00
8:53 pm 20:53 Cloudy 71 21.7 63 17.2 76 76 ESE 5 7 29.94 1014 10 16 0.00 0.00
9:53 pm 21:53 Mostly Cloudy 71 21.7 63 17.2 76 76 VRB 7 11 29.93 1013 10 16 0.00 0.00
10:53 pm 22:53 Mostly Clear 70 21.1 63 17.2 79 79 SE 8 13 29.91 1013 10 16 0.00 0.00
11:53 pm 23:53 Mostly Clear 70 21.1 63 17.2 79 79 ESE 6 9 29.90 1012 10 16 0.00 0.00

Powered by AerisWeather